CXA021 CYYZ-MUHA

Flight info

Callsign CXA021
Flight time N/A
Altitude 36000
Route BETES3 FOXEE Q145 HVQ J85 SPA DCT KERLY Q65 DOFFY/N0471F350 Q79 FEMID/N0469F360 DCT KARTR Q81 TUNSL Y196 CANOA ENTRY5
Aircraft A306/H-SDE3FGHIRWY/LB1

Departure

Time 2026-05-07 15:39
Airport Toronto Pearson International Airport (CYYZ)

Arrival

Time N/A
Airport José Martí International Airport (MUHA)
Time Latitude Longitude Altitude Speed Heading
2026-05-07 14:47 43.68174 -79.61978 571 ft 0 kts 343°
2026-05-07 15:30 43.68154 -79.61970 575 ft 4 kts 346°
2026-05-07 15:30 43.68130 -79.61960 575 ft 3 kts 336°
2026-05-07 15:30 43.68109 -79.61944 571 ft 4 kts 307°
2026-05-07 15:31 43.68102 -79.61916 572 ft 4 kts 253°
2026-05-07 15:31 43.68114 -79.61885 575 ft 4 kts 228°
2026-05-07 15:31 43.68120 -79.61875 576 ft 1 kts 226°
2026-05-07 15:33 43.68118 -79.61877 576 ft 3 kts 226°
2026-05-07 15:34 43.68072 -79.61939 568 ft 14 kts 220°
2026-05-07 15:34 43.67974 -79.62022 568 ft 18 kts 229°
2026-05-07 15:34 43.68006 -79.62148 568 ft 15 kts 315°
2026-05-07 15:34 43.68086 -79.62257 569 ft 17 kts 316°
2026-05-07 15:35 43.68188 -79.62386 568 ft 23 kts 319°
2026-05-07 15:35 43.68320 -79.62546 570 ft 27 kts 316°
2026-05-07 15:35 43.68451 -79.62714 576 ft 24 kts 317°
2026-05-07 15:35 43.68570 -79.62867 573 ft 22 kts 317°
2026-05-07 15:36 43.68681 -79.63010 569 ft 22 kts 317°
2026-05-07 15:36 43.68793 -79.63156 571 ft 22 kts 316°
2026-05-07 15:36 43.68908 -79.63306 572 ft 23 kts 316°
2026-05-07 15:36 43.69018 -79.63454 572 ft 18 kts 315°
2026-05-07 15:37 43.69107 -79.63536 574 ft 13 kts
2026-05-07 15:37 43.69161 -79.63470 574 ft 11 kts 47°
2026-05-07 15:37 43.69245 -79.63420 572 ft 14 kts 359°
2026-05-07 15:37 43.69331 -79.63402 569 ft 12 kts 19°
2026-05-07 15:38 43.69390 -79.63350 575 ft 10 kts 40°
2026-05-07 15:38 43.69446 -79.63313 573 ft 8 kts 358°
2026-05-07 15:38 43.69488 -79.63368 572 ft 10 kts 278°
2026-05-07 15:38 43.69435 -79.63481 569 ft 23 kts 229°
2026-05-07 15:39 43.69197 -79.63823 569 ft 82 kts 226°
2026-05-07 15:39 43.68662 -79.64599 571 ft 140 kts 226°
2026-05-07 15:39 43.67866 -79.65698 755 ft 176 kts 225°
2026-05-07 15:39 43.67027 -79.66953 1500 ft 176 kts 233°
2026-05-07 15:40 43.66331 -79.68291 2560 ft 171 kts 238°
2026-05-07 15:40 43.65634 -79.69735 3081 ft 194 kts 238°
2026-05-07 15:40 43.64816 -79.71410 3420 ft 225 kts 237°
2026-05-07 15:40 43.63866 -79.73254 3846 ft 244 kts 232°
2026-05-07 15:41 43.62571 -79.74835 4569 ft 256 kts 213°
2026-05-07 15:41 43.60853 -79.75560 5547 ft 264 kts 185°
2026-05-07 15:41 43.59019 -79.75171 6531 ft 270 kts 168°
2026-05-07 15:41 43.57202 -79.74430 7425 ft 275 kts 166°
2026-05-07 15:42 43.55363 -79.73630 8355 ft 279 kts 166°
2026-05-07 15:42 43.53497 -79.72819 9293 ft 282 kts 167°
2026-05-07 15:42 43.51611 -79.72004 10185 ft 286 kts 167°
2026-05-07 15:42 43.49646 -79.71166 10635 ft 306 kts 167°
2026-05-07 15:43 43.47542 -79.70273 10929 ft 327 kts 167°
2026-05-07 15:43 43.45300 -79.69319 11210 ft 347 kts 167°
2026-05-07 15:43 43.42916 -79.68471 11468 ft 360 kts 176°
2026-05-07 15:43 43.40402 -79.68573 11801 ft 364 kts 197°
2026-05-07 15:44 43.37998 -79.69653 12386 ft 365 kts 206°
2026-05-07 15:44 43.35626 -79.70949 13047 ft 369 kts 207°
2026-05-07 15:44 43.33236 -79.72261 13703 ft 372 kts 207°
2026-05-07 15:44 43.30854 -79.73558 14302 ft 375 kts 207°
2026-05-07 15:45 43.28424 -79.74871 14933 ft 378 kts 207°
2026-05-07 15:45 43.25948 -79.76163 15570 ft 382 kts 205°
2026-05-07 15:45 43.23377 -79.77178 16208 ft 388 kts 201°
2026-05-07 15:45 43.20753 -79.78076 16856 ft 391 kts 200°
2026-05-07 15:46 43.15430 -79.79867 18086 ft 396 kts 201°
2026-05-07 15:46 43.12748 -79.80771 18608 ft 398 kts 201°
2026-05-07 15:46 43.10048 -79.81682 19123 ft 400 kts 201°
2026-05-07 15:47 43.07341 -79.82596 19626 ft 402 kts 201°
2026-05-07 15:47 43.04621 -79.83514 20122 ft 403 kts 201°
2026-05-07 15:47 43.01895 -79.84434 20620 ft 404 kts 201°
2026-05-07 15:47 42.99154 -79.85358 21112 ft 406 kts 201°
2026-05-07 15:48 42.96407 -79.86284 21595 ft 408 kts 201°
2026-05-07 15:48 42.93647 -79.87213 22092 ft 409 kts 201°
2026-05-07 15:48 42.90874 -79.88145 22552 ft 411 kts 201°
2026-05-07 15:48 42.88096 -79.89079 23002 ft 413 kts 201°
2026-05-07 15:49 42.85293 -79.90021 23440 ft 415 kts 201°
2026-05-07 15:49 42.82476 -79.90906 23808 ft 418 kts 199°
2026-05-07 15:49 42.79603 -79.91662 24163 ft 421 kts 199°
2026-05-07 15:49 42.76723 -79.92392 24516 ft 422 kts 199°
2026-05-07 15:50 42.73832 -79.93124 24839 ft 423 kts 199°
2026-05-07 15:50 42.70933 -79.93860 25168 ft 425 kts 199°
2026-05-07 15:50 42.68022 -79.94600 25490 ft 426 kts 199°
2026-05-07 15:50 42.65106 -79.95342 25807 ft 427 kts 200°
2026-05-07 15:51 42.62181 -79.96085 26111 ft 428 kts 200°
2026-05-07 15:51 42.59245 -79.96832 26403 ft 430 kts 200°
2026-05-07 15:51 42.56309 -79.97578 26709 ft 431 kts 200°
2026-05-07 15:51 42.53355 -79.98327 26995 ft 432 kts 200°
2026-05-07 15:52 42.50409 -79.99072 27418 ft 430 kts 201°
2026-05-07 15:52 42.47478 -79.99811 27857 ft 427 kts 201°
2026-05-07 15:52 42.44570 -80.00545 28296 ft 425 kts 201°
2026-05-07 15:52 42.41669 -80.01279 28701 ft 423 kts 201°
2026-05-07 15:53 42.38781 -80.02008 29117 ft 422 kts 202°
2026-05-07 15:53 42.35894 -80.02737 29523 ft 420 kts 202°
2026-05-07 15:53 42.33033 -80.03459 29921 ft 419 kts 202°
2026-05-07 15:53 42.30172 -80.04180 30255 ft 418 kts 202°
2026-05-07 15:54 42.27305 -80.04903 30509 ft 419 kts 202°
2026-05-07 15:54 42.24475 -80.05735 30753 ft 413 kts 206°
2026-05-07 15:54 42.21730 -80.06831 31008 ft 410 kts 208°
2026-05-07 15:54 42.19009 -80.07986 31273 ft 410 kts 208°
2026-05-07 15:55 42.16290 -80.09146 31548 ft 410 kts 208°
2026-05-07 15:55 42.13572 -80.10302 31815 ft 410 kts 208°
2026-05-07 15:55 42.10842 -80.11460 32091 ft 411 kts 208°
2026-05-07 15:55 42.08117 -80.12614 32357 ft 411 kts 208°
2026-05-07 15:56 42.05385 -80.13769 32631 ft 411 kts 208°
2026-05-07 15:56 42.02660 -80.14918 32907 ft 411 kts 208°
2026-05-07 15:56 41.99931 -80.16069 33185 ft 411 kts 208°
2026-05-07 15:56 41.97200 -80.17218 33465 ft 411 kts 208°
2026-05-07 15:57 41.94480 -80.18362 33733 ft 410 kts 208°
2026-05-07 15:57 41.91755 -80.19508 34002 ft 410 kts 208°
2026-05-07 15:57 41.89034 -80.20650 34238 ft 410 kts 208°
2026-05-07 15:57 41.86308 -80.21794 34459 ft 410 kts 208°
2026-05-07 15:58 41.83579 -80.22938 34672 ft 410 kts 208°
2026-05-07 15:58 41.80859 -80.24077 34889 ft 410 kts 208°
2026-05-07 15:58 41.78132 -80.25217 35093 ft 410 kts 207°
2026-05-07 15:58 41.75409 -80.26356 35287 ft 410 kts 207°
2026-05-07 15:59 41.72690 -80.27492 35491 ft 410 kts 207°
2026-05-07 15:59 41.69966 -80.28629 35685 ft 410 kts 207°
2026-05-07 15:59 41.67246 -80.29763 35887 ft 410 kts 207°
2026-05-07 16:00 41.61791 -80.32035 35958 ft 411 kts 207°
2026-05-07 16:00 41.56345 -80.34297 35949 ft 410 kts 208°
2026-05-07 16:01 41.50901 -80.36556 35953 ft 409 kts 208°
2026-05-07 16:01 41.45471 -80.38803 35961 ft 408 kts 208°
2026-05-07 16:02 41.40055 -80.41043 35970 ft 408 kts 208°
2026-05-07 16:02 41.34634 -80.43281 35968 ft 407 kts 208°
2026-05-07 16:03 41.29222 -80.45511 35966 ft 407 kts 208°
2026-05-07 16:03 41.23814 -80.47735 35968 ft 406 kts 208°
2026-05-07 16:04 41.18424 -80.49976 35961 ft 404 kts 209°
2026-05-07 16:04 41.13120 -80.52383 35963 ft 402 kts 210°
2026-05-07 16:05 41.07848 -80.54843 35962 ft 401 kts 210°
2026-05-07 16:05 41.02587 -80.57283 35968 ft 400 kts 211°
2026-05-07 16:06 40.97335 -80.59698 35967 ft 399 kts 211°
2026-05-07 16:06 40.92970 -80.61697 35971 ft 399 kts 211°
2026-05-07 16:07 40.87725 -80.64095 35981 ft 398 kts 211°
2026-05-07 16:07 40.82489 -80.66485 35983 ft 398 kts 211°
2026-05-07 16:08 40.77256 -80.68870 35983 ft 397 kts 211°
2026-05-07 16:08 40.72038 -80.71245 35985 ft 396 kts 211°
2026-05-07 16:09 40.66832 -80.73610 35985 ft 396 kts 211°
2026-05-07 16:09 40.61636 -80.75967 35992 ft 395 kts 211°
2026-05-07 16:10 40.56401 -80.78337 35996 ft 394 kts 211°
2026-05-07 16:10 40.51223 -80.80677 35994 ft 394 kts 212°
2026-05-07 16:11 40.46042 -80.83016 35991 ft 393 kts 212°
2026-05-07 16:11 40.40876 -80.85345 35985 ft 393 kts 212°
2026-05-07 16:12 40.35710 -80.87669 35982 ft 392 kts 212°
2026-05-07 16:12 40.30553 -80.89983 35978 ft 391 kts 212°
2026-05-07 16:13 40.25415 -80.92286 35974 ft 391 kts 212°
2026-05-07 16:13 40.21201 -80.94173 35983 ft 390 kts 212°
2026-05-07 16:14 40.16075 -80.96465 35981 ft 389 kts 212°
2026-05-07 16:14 40.10957 -80.98751 35978 ft 389 kts 212°
2026-05-07 16:15 40.05840 -81.01031 35981 ft 388 kts 212°
2026-05-07 16:15 40.00745 -81.03298 35988 ft 387 kts 213°
2026-05-07 16:16 39.95652 -81.05560 35987 ft 386 kts 213°
2026-05-07 16:16 39.90562 -81.07820 35989 ft 386 kts 213°
2026-05-07 16:17 39.85476 -81.10073 35987 ft 385 kts 213°
2026-05-07 16:17 39.80403 -81.12315 35986 ft 385 kts 213°
2026-05-07 16:18 39.75340 -81.14550 35987 ft 384 kts 213°
2026-05-07 16:18 39.70292 -81.16776 35989 ft 383 kts 213°
2026-05-07 16:19 39.65242 -81.18999 35990 ft 382 kts 213°
2026-05-07 16:19 39.60207 -81.21212 35993 ft 382 kts 213°
2026-05-07 16:20 39.55183 -81.23414 36001 ft 381 kts 213°
2026-05-07 16:20 39.50183 -81.25640 36002 ft 379 kts 214°
2026-05-07 16:21 39.45205 -81.27900 36002 ft 379 kts 214°
2026-05-07 16:21 39.40219 -81.30164 36007 ft 380 kts 214°
2026-05-07 16:22 39.35225 -81.32423 36006 ft 380 kts 214°
2026-05-07 16:22 39.30240 -81.34668 36002 ft 379 kts 214°
2026-05-07 16:23 39.25255 -81.36913 36005 ft 379 kts 214°
2026-05-07 16:23 39.20279 -81.39151 36000 ft 379 kts 214°
2026-05-07 16:24 39.15293 -81.41390 36003 ft 379 kts 214°
2026-05-07 16:24 39.10305 -81.43625 36008 ft 379 kts 214°
2026-05-07 16:25 39.05325 -81.45851 36001 ft 379 kts 214°
2026-05-07 16:25 39.00346 -81.48076 36002 ft 379 kts 214°
2026-05-07 16:26 38.95366 -81.50301 36001 ft 379 kts 214°
2026-05-07 16:26 38.90378 -81.52523 36004 ft 379 kts 214°
2026-05-07 16:27 38.85393 -81.54741 36002 ft 379 kts 214°
2026-05-07 16:27 38.80411 -81.56952 36002 ft 379 kts 214°
2026-05-07 16:28 38.75435 -81.59160 36006 ft 379 kts 214°
2026-05-07 16:28 38.70447 -81.61372 36003 ft 379 kts 214°
2026-05-07 16:29 38.65452 -81.63582 36007 ft 380 kts 214°
2026-05-07 16:29 38.60449 -81.65791 36011 ft 380 kts 214°
2026-05-07 16:30 38.55455 -81.67991 36024 ft 380 kts 214°
2026-05-07 16:30 38.50441 -81.70201 36022 ft 381 kts 214°
2026-05-07 16:31 38.45431 -81.72408 36011 ft 381 kts 214°
2026-05-07 16:31 38.40408 -81.74612 36013 ft 382 kts 214°
2026-05-07 16:32 38.35272 -81.76601 36016 ft 396 kts 206°
2026-05-07 16:32 38.32482 -81.77091 36012 ft 411 kts 201°
2026-05-07 16:32 38.29614 -81.77354 36009 ft 416 kts 199°
2026-05-07 16:33 38.23789 -81.77650 36004 ft 420 kts 198°
2026-05-07 16:33 38.17932 -81.77876 35999 ft 422 kts 197°
2026-05-07 16:34 38.12075 -81.78129 36002 ft 421 kts 198°
2026-05-07 16:34 38.06220 -81.78409 35998 ft 421 kts 198°
2026-05-07 16:35 38.00356 -81.78703 36005 ft 422 kts 198°
2026-05-07 16:35 37.94487 -81.78994 36001 ft 422 kts 198°
2026-05-07 16:36 37.88607 -81.79279 36006 ft 424 kts 197°
2026-05-07 16:36 37.82710 -81.79566 36004 ft 424 kts 197°
2026-05-07 16:37 37.76823 -81.79846 36001 ft 423 kts 197°
2026-05-07 16:37 37.70925 -81.80138 36006 ft 425 kts 197°
2026-05-07 16:38 37.65001 -81.80429 36005 ft 426 kts 197°
2026-05-07 16:38 37.59071 -81.80723 36004 ft 427 kts 197°
2026-05-07 16:39 37.53116 -81.81011 36011 ft 428 kts 197°
2026-05-07 16:39 37.47153 -81.81289 36014 ft 429 kts 197°
2026-05-07 16:40 37.41175 -81.81578 36006 ft 430 kts 197°
2026-05-07 16:40 37.35191 -81.81869 36008 ft 431 kts 197°
2026-05-07 16:41 37.29181 -81.82157 36010 ft 432 kts 197°
2026-05-07 16:41 37.23166 -81.82446 36011 ft 433 kts 197°
2026-05-07 16:42 37.17149 -81.82734 36009 ft 434 kts 197°
2026-05-07 16:42 37.11107 -81.83023 36021 ft 435 kts 197°
2026-05-07 16:43 37.05051 -81.83316 36011 ft 436 kts 197°
2026-05-07 16:43 36.98989 -81.83607 36016 ft 437 kts 196°
2026-05-07 16:44 36.92914 -81.83895 36006 ft 437 kts 196°
2026-05-07 16:44 36.87865 -81.84138 35996 ft 437 kts 196°
2026-05-07 16:45 36.81776 -81.84427 35985 ft 438 kts 196°
2026-05-07 16:45 36.75639 -81.84715 35982 ft 439 kts 196°
2026-05-07 16:46 36.69567 -81.85001 35983 ft 439 kts 196°
2026-05-07 16:46 36.63413 -81.85294 35981 ft 440 kts 196°
2026-05-07 16:47 36.57322 -81.85583 35974 ft 442 kts 196°
2026-05-07 16:47 36.51172 -81.85875 35962 ft 442 kts 195°
2026-05-07 16:48 36.45015 -81.86165 35950 ft 443 kts 195°
2026-05-07 16:48 36.38849 -81.86455 35928 ft 443 kts 195°
2026-05-07 16:49 36.32632 -81.86747 35923 ft 444 kts 195°
2026-05-07 16:49 36.26498 -81.87029 35912 ft 444 kts 195°
2026-05-07 16:50 36.20312 -81.87318 35912 ft 445 kts 195°
2026-05-07 16:50 36.14115 -81.87611 35907 ft 447 kts 195°
2026-05-07 16:51 36.07895 -81.87901 35895 ft 448 kts 195°
2026-05-07 16:51 36.01661 -81.88191 35897 ft 449 kts 195°
2026-05-07 16:52 35.95409 -81.88483 35901 ft 450 kts 195°
2026-05-07 16:52 35.89101 -81.88770 35901 ft 451 kts 195°
2026-05-07 16:53 35.82862 -81.89059 35895 ft 451 kts 195°
2026-05-07 16:53 35.76546 -81.89354 35894 ft 452 kts 195°
2026-05-07 16:54 35.70282 -81.89644 35891 ft 454 kts 195°
2026-05-07 16:54 35.63926 -81.89937 35890 ft 454 kts 194°
2026-05-07 16:55 35.57596 -81.90229 35895 ft 455 kts 194°
2026-05-07 16:55 35.51258 -81.90520 35901 ft 456 kts 194°
2026-05-07 16:56 35.44919 -81.90812 35903 ft 457 kts 194°
2026-05-07 16:56 35.35374 -81.91249 35903 ft 458 kts 194°
2026-05-07 16:57 35.29005 -81.91539 35895 ft 459 kts 194°
2026-05-07 16:57 35.22613 -81.91830 35890 ft 459 kts 194°
2026-05-07 16:58 35.16262 -81.92120 35888 ft 460 kts 194°
2026-05-07 16:58 35.09858 -81.92412 35894 ft 460 kts 194°
2026-05-07 16:59 35.03474 -81.92770 35899 ft 455 kts 197°
2026-05-07 16:59 34.97189 -81.93633 35903 ft 454 kts 198°
2026-05-07 17:00 34.90929 -81.94598 35900 ft 453 kts 199°
2026-05-07 17:00 34.84665 -81.95580 35905 ft 454 kts 199°
2026-05-07 17:01 34.78394 -81.96554 35898 ft 455 kts 198°
2026-05-07 17:01 34.72096 -81.97523 35896 ft 457 kts 198°
2026-05-07 17:02 34.65791 -81.98489 35919 ft 457 kts 198°
2026-05-07 17:02 34.59465 -81.99458 35930 ft 459 kts 198°
2026-05-07 17:03 34.53084 -82.00431 35933 ft 459 kts 198°
2026-05-07 17:03 34.46775 -82.01394 35933 ft 461 kts 198°
2026-05-07 17:04 34.40369 -82.02370 35930 ft 461 kts 198°
2026-05-07 17:04 34.33997 -82.03339 35904 ft 462 kts 198°
2026-05-07 17:05 34.27611 -82.04309 35903 ft 462 kts 198°
2026-05-07 17:05 34.21234 -82.05275 35902 ft 463 kts 198°
2026-05-07 17:06 34.14828 -82.06245 35900 ft 463 kts 198°
2026-05-07 17:06 34.08437 -82.07212 35899 ft 464 kts 198°
2026-05-07 17:07 34.02023 -82.08181 35894 ft 464 kts 198°
2026-05-07 17:07 33.95613 -82.09147 35891 ft 464 kts 198°
2026-05-07 17:08 33.89205 -82.10111 35891 ft 465 kts 198°
2026-05-07 17:08 33.82784 -82.11075 35889 ft 465 kts 198°
2026-05-07 17:09 33.76369 -82.12038 35896 ft 465 kts 198°
2026-05-07 17:09 33.69944 -82.13001 35906 ft 465 kts 198°
2026-05-07 17:10 33.63523 -82.13961 35911 ft 465 kts 199°
2026-05-07 17:10 33.57105 -82.14920 35919 ft 465 kts 199°
2026-05-07 17:11 33.50689 -82.15876 35917 ft 464 kts 199°
2026-05-07 17:11 33.44282 -82.16830 35918 ft 464 kts 199°
2026-05-07 17:12 33.37871 -82.17784 35917 ft 464 kts 199°
2026-05-07 17:12 33.31463 -82.18734 35916 ft 464 kts 199°
2026-05-07 17:13 33.25059 -82.19683 35907 ft 464 kts 199°
2026-05-07 17:13 33.18631 -82.20635 35906 ft 463 kts 199°
2026-05-07 17:14 33.12230 -82.21581 35908 ft 463 kts 199°
2026-05-07 17:14 33.05833 -82.22524 35910 ft 463 kts 198°
2026-05-07 17:15 32.99484 -82.23460 35911 ft 463 kts 198°
2026-05-07 17:15 32.93052 -82.24406 35913 ft 463 kts 198°
2026-05-07 17:16 32.86704 -82.25340 35913 ft 463 kts 198°
2026-05-07 17:16 32.80270 -82.26285 35918 ft 462 kts 198°
2026-05-07 17:17 32.73889 -82.27221 35919 ft 463 kts 198°
2026-05-07 17:17 32.67494 -82.28157 35924 ft 463 kts 198°
2026-05-07 17:18 32.61103 -82.29090 35930 ft 463 kts 198°
2026-05-07 17:18 32.54719 -82.30021 35932 ft 463 kts 198°
2026-05-07 17:19 32.48319 -82.30954 35937 ft 463 kts 198°
2026-05-07 17:19 32.41928 -82.31885 35934 ft 463 kts 198°
2026-05-07 17:20 32.35524 -82.32816 35946 ft 464 kts 198°
2026-05-07 17:20 32.30200 -82.33588 35951 ft 464 kts 198°
2026-05-07 17:21 32.23784 -82.34518 35950 ft 465 kts 198°
2026-05-07 17:21 32.17362 -82.35446 35949 ft 465 kts 197°
2026-05-07 17:22 32.10946 -82.36373 35954 ft 465 kts 197°
2026-05-07 17:22 32.04478 -82.37114 35949 ft 471 kts 193°
2026-05-07 17:23 31.97906 -82.37427 35956 ft 473 kts 192°
2026-05-07 17:23 31.91318 -82.37673 35958 ft 473 kts 192°
2026-05-07 17:24 31.84733 -82.37964 35963 ft 473 kts 192°
2026-05-07 17:24 31.78159 -82.38285 35977 ft 473 kts 192°
2026-05-07 17:25 31.71536 -82.38618 35987 ft 473 kts 192°
2026-05-07 17:25 31.64959 -82.38947 35995 ft 473 kts 192°
2026-05-07 17:26 31.58379 -82.39274 35993 ft 473 kts 192°
2026-05-07 17:26 31.51790 -82.39599 35996 ft 473 kts 192°
2026-05-07 17:27 31.45210 -82.39924 35997 ft 474 kts 192°
2026-05-07 17:27 31.38625 -82.40249 36012 ft 474 kts 192°
2026-05-07 17:28 31.32038 -82.40574 36015 ft 474 kts 192°
2026-05-07 17:28 31.25455 -82.40898 36015 ft 474 kts 192°
2026-05-07 17:29 31.18868 -82.41221 36015 ft 473 kts 192°
2026-05-07 17:29 31.12286 -82.41544 36016 ft 473 kts 191°
2026-05-07 17:30 31.05704 -82.41867 36019 ft 473 kts 191°
2026-05-07 17:30 30.99127 -82.42189 36021 ft 473 kts 191°
2026-05-07 17:31 30.92544 -82.42511 36030 ft 473 kts 191°
2026-05-07 17:31 30.85961 -82.42832 36036 ft 473 kts 191°
2026-05-07 17:32 30.79373 -82.43154 36040 ft 474 kts 191°
2026-05-07 17:32 30.72785 -82.43475 36055 ft 473 kts 191°
2026-05-07 17:33 30.66325 -82.44002 36038 ft 459 kts 195°
2026-05-07 17:33 30.60022 -82.44897 36054 ft 455 kts 196°
2026-05-07 17:34 30.53733 -82.45837 36053 ft 456 kts 196°
2026-05-07 17:34 30.47432 -82.46734 36057 ft 456 kts 195°
2026-05-07 17:35 30.41125 -82.47600 36064 ft 456 kts 195°
2026-05-07 17:35 30.34820 -82.48458 36074 ft 457 kts 195°
2026-05-07 17:36 30.28506 -82.49317 36084 ft 457 kts 195°
2026-05-07 17:36 30.22186 -82.50178 36088 ft 457 kts 195°
2026-05-07 17:37 30.15797 -82.50732 36090 ft 463 kts 191°
2026-05-07 17:37 30.09346 -82.50923 36089 ft 465 kts 190°
2026-05-07 17:38 30.02877 -82.51052 36081 ft 465 kts 189°
2026-05-07 17:38 29.96401 -82.51181 36068 ft 465 kts 189°
2026-05-07 17:39 29.89922 -82.51318 36061 ft 466 kts 189°
2026-05-07 17:39 29.83440 -82.51461 36059 ft 466 kts 189°
2026-05-07 17:40 29.76953 -82.51604 36062 ft 466 kts 189°
2026-05-07 17:40 29.70472 -82.51747 36062 ft 466 kts 189°
2026-05-07 17:41 29.63978 -82.51890 36063 ft 466 kts 189°
2026-05-07 17:41 29.57489 -82.52032 36061 ft 466 kts 189°
2026-05-07 17:42 29.50994 -82.52173 36062 ft 466 kts 189°
2026-05-07 17:42 29.44503 -82.52315 36060 ft 467 kts 189°
2026-05-07 17:43 29.38018 -82.52457 36057 ft 467 kts 189°
2026-05-07 17:43 29.31518 -82.52599 36059 ft 467 kts 188°
2026-05-07 17:44 29.24998 -82.52495 36060 ft 475 kts 181°
2026-05-07 17:44 29.18435 -82.51473 36061 ft 477 kts 178°
2026-05-07 17:45 29.11874 -82.50273 36060 ft 478 kts 178°
2026-05-07 17:45 29.05319 -82.49053 36083 ft 477 kts 178°
2026-05-07 17:46 28.98754 -82.47850 36088 ft 477 kts 178°
2026-05-07 17:46 28.92194 -82.46662 36096 ft 477 kts 178°
2026-05-07 17:47 28.85632 -82.45477 36097 ft 477 kts 178°
2026-05-07 17:47 28.79077 -82.44294 36078 ft 477 kts 178°
2026-05-07 17:48 28.72517 -82.43113 36079 ft 477 kts 178°
2026-05-07 17:48 28.65956 -82.41932 36077 ft 477 kts 177°
2026-05-07 17:49 28.59395 -82.40756 36072 ft 477 kts 177°
2026-05-07 17:49 28.52829 -82.39575 36068 ft 477 kts 177°
2026-05-07 17:50 28.46264 -82.38396 36073 ft 478 kts 177°
2026-05-07 17:50 28.39704 -82.37221 36071 ft 478 kts 177°
2026-05-07 17:51 28.33134 -82.36045 36068 ft 478 kts 177°
2026-05-07 17:51 28.26561 -82.34871 36079 ft 478 kts 177°
2026-05-07 17:52 28.19990 -82.33699 36078 ft 478 kts 177°
2026-05-07 17:52 28.13414 -82.32528 36077 ft 478 kts 177°
2026-05-07 17:53 28.06832 -82.31357 36086 ft 478 kts 177°
2026-05-07 17:53 28.00306 -82.29701 36085 ft 484 kts 169°
2026-05-07 17:54 27.93842 -82.27551 36077 ft 485 kts 168°
2026-05-07 17:54 27.87383 -82.25318 36079 ft 485 kts 168°
2026-05-07 17:55 27.80927 -82.23090 36080 ft 485 kts 168°
2026-05-07 17:55 27.74460 -82.20874 36087 ft 485 kts 168°
2026-05-07 17:56 27.68001 -82.18671 36078 ft 485 kts 168°
2026-05-07 17:56 27.62624 -82.16841 36078 ft 485 kts 168°
2026-05-07 17:57 27.56154 -82.14640 36075 ft 485 kts 168°
2026-05-07 17:57 27.49690 -82.12444 36077 ft 486 kts 168°
2026-05-07 17:58 27.43224 -82.10250 36079 ft 486 kts 168°
2026-05-07 17:58 27.36751 -82.08055 36078 ft 486 kts 168°
2026-05-07 17:59 27.30280 -82.05864 36078 ft 486 kts 168°
2026-05-07 17:59 27.23815 -82.03678 36081 ft 486 kts 168°
2026-05-07 18:00 27.17329 -82.01487 36091 ft 486 kts 168°
2026-05-07 18:00 27.10844 -81.99300 36090 ft 486 kts 168°
2026-05-07 18:01 27.04474 -81.96627 36096 ft 491 kts 160°
2026-05-07 18:01 26.98300 -81.93335 36099 ft 492 kts 158°
2026-05-07 18:02 26.89094 -81.88244 36097 ft 492 kts 158°
2026-05-07 18:03 26.82955 -81.84863 36090 ft 492 kts 158°
2026-05-07 18:03 26.76803 -81.81494 36067 ft 492 kts 158°
2026-05-07 18:04 26.70655 -81.78134 36072 ft 492 kts 158°
2026-05-07 18:04 26.64504 -81.74778 36078 ft 491 kts 158°
2026-05-07 18:05 26.58363 -81.71430 36084 ft 491 kts 158°
2026-05-07 18:05 26.52228 -81.68090 36086 ft 491 kts 158°
2026-05-07 18:06 26.46079 -81.64746 36088 ft 491 kts 158°
2026-05-07 18:06 26.39933 -81.61407 36079 ft 491 kts 158°
2026-05-07 18:07 26.33793 -81.58075 36065 ft 491 kts 158°
2026-05-07 18:07 26.27647 -81.54744 36074 ft 491 kts 158°
2026-05-07 18:08 26.21503 -81.51419 36068 ft 491 kts 158°
2026-05-07 18:08 26.15351 -81.48115 36079 ft 490 kts 160°
2026-05-07 18:09 26.08870 -81.46189 36081 ft 478 kts 179°
2026-05-07 18:09 26.02283 -81.46323 36084 ft 472 kts 188°
2026-05-07 18:10 25.95740 -81.46937 36087 ft 472 kts 189°
2026-05-07 18:10 25.89196 -81.47609 36085 ft 472 kts 189°
2026-05-07 18:11 25.82646 -81.48246 36082 ft 473 kts 189°
2026-05-07 18:11 25.76085 -81.48855 36079 ft 473 kts 189°
2026-05-07 18:12 25.69520 -81.49457 36075 ft 473 kts 189°
2026-05-07 18:12 25.62956 -81.50058 36076 ft 473 kts 189°
2026-05-07 18:13 25.56391 -81.50661 36074 ft 474 kts 189°
2026-05-07 18:13 25.49824 -81.51256 36074 ft 474 kts 188°
2026-05-07 18:14 25.43204 -81.51473 36075 ft 477 kts 184°
2026-05-07 18:14 25.36565 -81.51458 36074 ft 477 kts 184°
2026-05-07 18:15 25.29929 -81.51451 36072 ft 477 kts 184°
2026-05-07 18:15 25.23293 -81.51484 36069 ft 477 kts 184°
2026-05-07 18:16 25.16662 -81.51536 36069 ft 477 kts 184°
2026-05-07 18:16 25.10029 -81.51590 36069 ft 477 kts 184°
2026-05-07 18:17 25.03393 -81.51643 36070 ft 477 kts 184°
2026-05-07 18:17 24.96759 -81.51745 36064 ft 475 kts 188°
2026-05-07 18:18 24.90410 -81.53316 36065 ft 464 kts 206°
2026-05-07 18:18 24.87562 -81.54935 36067 ft 458 kts 217°
2026-05-07 18:18 24.85075 -81.57021 36073 ft 454 kts 224°
2026-05-07 18:19 24.80454 -81.61745 36068 ft 453 kts 227°
2026-05-07 18:19 24.75953 -81.66608 36070 ft 453 kts 228°
2026-05-07 18:20 24.71439 -81.71457 36070 ft 454 kts 227°
2026-05-07 18:20 24.66899 -81.76273 36081 ft 454 kts 227°
2026-05-07 18:21 24.62346 -81.81076 36083 ft 454 kts 227°
2026-05-07 18:21 24.57791 -81.85874 36082 ft 454 kts 227°
2026-05-07 18:22 24.53232 -81.90674 36079 ft 454 kts 227°
2026-05-07 18:22 24.48870 -81.95640 36075 ft 450 kts 236°
2026-05-07 18:23 24.45740 -82.01520 36071 ft 445 kts 246°
2026-05-07 18:23 24.43047 -82.07637 36063 ft 445 kts 246°
2026-05-07 18:24 24.40368 -82.13758 36063 ft 445 kts 246°
2026-05-07 18:24 24.37684 -82.19880 36057 ft 445 kts 246°
2026-05-07 18:25 24.34993 -82.26012 36056 ft 445 kts 246°
2026-05-07 18:25 24.32307 -82.32122 36058 ft 445 kts 246°
2026-05-07 18:26 24.29616 -82.38235 36053 ft 445 kts 246°
2026-05-07 18:26 24.26926 -82.44340 36052 ft 445 kts 246°
2026-05-07 18:27 24.24233 -82.50442 36052 ft 445 kts 246°
2026-05-07 18:27 24.21536 -82.56545 36052 ft 445 kts 246°
2026-05-07 18:28 24.18838 -82.62642 36047 ft 445 kts 246°
2026-05-07 18:28 24.16137 -82.68736 36050 ft 445 kts 246°
2026-05-07 18:29 24.13436 -82.74826 36051 ft 445 kts 246°
2026-05-07 18:29 24.10728 -82.80921 36048 ft 445 kts 246°
2026-05-07 18:30 24.08022 -82.87005 36047 ft 445 kts 246°
2026-05-07 18:30 24.05314 -82.93084 36050 ft 445 kts 246°
2026-05-07 18:31 24.02371 -82.99015 35627 ft 444 kts 235°
2026-05-07 18:31 24.00185 -83.01419 34920 ft 451 kts 220°
2026-05-07 18:31 23.97432 -83.03101 34153 ft 460 kts 204°
2026-05-07 18:31 23.94286 -83.03912 33289 ft 470 kts 188°
2026-05-07 18:32 23.93272 -83.04091 32415 ft 0 kts 155°